Location: Unspecified
(0.0000°N, 0.0000°E)
Time: 19:06:14
(UTC+00:00)

CUBERRT - Visible Passes

Search period start: 19 May 2019 00:00
Search period end: 29 May 2019 00:00
Orbit: 374 x 382 km, 51.6° (Epoch: 19 May)

Date Brightness Start Highest point End Pass type
(mag) Time Alt. Az. Time Alt. Az. Time Alt. Az.
19 May ? 04:33:36 10° N 04:36:13 24° NE 04:38:50 10° ESE visible
20 May ? 05:08:26 10° WNW 05:11:13 29° SW 05:14:00 10° S visible
21 May ? 04:13:21 12° SE 04:13:21 12° SE 04:13:37 10° SE visible
